Location: Newark
(40.4833°N, 25.5167°E)
Time: 20:14:11
(UTC+00:00)

OTV 5 (USA 277) - Visible Passes

Search period start: 16 October 2019 00:00
Search period end: 26 October 2019 00:00
Orbit: 310 x 324 km, 54.5° (Epoch: 08 October)

Date Brightness Start Highest point End Pass type
(mag) Time Alt. Az. Time Alt. Az. Time Alt. Az.
17 Oct ? 02:50:43 10° N 02:51:37 11° NNE 02:52:32 10° NE visible
18 Oct ? 03:05:07 15° N 03:06:28 20° NNE 03:08:36 10° E visible
19 Oct ? 03:19:36 20° NNW 03:21:11 46° NE 03:23:50 10° ESE visible
20 Oct ? 03:34:13 22° WNW 03:35:43 53° SW 03:38:23 10° SSE visible
21 Oct ? 02:18:02 13° E 02:18:02 13° E 02:18:24 10° E visible
21 Oct ? 03:48:58 14° W 03:50:07 18° SW 03:52:04 10° S visible
22 Oct ? 02:32:55 13° SE 02:32:55 13° SE 02:33:18 10° SE visible
